Shelbyville, IN

9:40 PM EDT on April 30, 2017 (GMT -0400)
Shelbyville Municipal

Weather History for KGEZ - October, 2014

Change the Weather History Date:

Sunday, October 12, 2014

  Actual Average Record
Temperature  
Mean Temperature 54 °F 55 °F  
Max Temperature 66 °F 67 °F 86 °F (2008)
Min Temperature 41 °F 43 °F 30 °F (2006)
Degree Days  
Heating Degree Days 11 10  
Month to date heating degree days 115 104  
Since 1 July heating degree days 185 189  
Cooling Degree Days 0 0  
Month to date cooling degree days 7 11  
Year to date cooling degree days 1074 910  
Growing Degree Days 3 (Base 50)    
Moisture  
Dew Point 46 °F    
Average Humidity 68    
Maximum Humidity 83    
Minimum Humidity 52    
Precipitation  
Precipitation 0.11 in 0.09 in 0.42 in (2004)
Month to date precipitation 1.38 1.27  
Year to date precipitation 31.01 34.72  
Sea Level Pressure  
Sea Level Pressure 30.04 in    
Wind  
Wind Speed 9 mph (ESE)    
Max Wind Speed 15 mph    
Max Gust Speed 19 mph    
Visibility 10 miles    
Events Rain    
T = Trace of Precipitation, MM = Missing Value Source: NWS Daily Summary

Daily Weather History Graph

Daily Weather History Graph

Search for Another Location

Airport or City:

Trip Planner

Search our weather history database for the weather conditions in past years. The results will help you decide how hot, cold, wet, or windy it might be!

Date:

Astronomy

Oct. 12, 2014 Rise Set
Actual Time 7:50 AM EDT 7:08 PM EDT
Civil Twilight 7:23 AM EDT 7:35 PM EDT
Nautical Twilight 6:51 AM EDT 8:06 PM EDT
Astronomical Twilight 6:20 AM EDT 8:37 PM EDT
Moon 10:26 PM EDT (10/12) 12:10 PM EDT (10/12)
Length of Visible Light 12h 12m
Length of Day
11h 18m
Waning Gibbous, 79% of the Moon is Illuminated
Oct 12
Waning Gibbous
Oct 15
Last Quarter
Oct 23
New
Oct 30
First Quarter
Nov 6
Full

Hourly Weather History & Observations

Time (EDT) Temp. Windchill Dew Point Humidity Pressure Visibility Wind Dir Wind Speed Gust Speed Precip Events Conditions
12:53 AM 42.1 °F 37.7 °F 37.0 °F 82% 30.15 in 10.0 mi ENE 6.9 mph - N/A   Clear
1:53 AM 43.0 °F 38.2 °F 37.9 °F 82% 30.14 in 10.0 mi ENE 8.1 mph - N/A   Clear
2:53 AM 43.0 °F 37.7 °F 37.0 °F 80% 30.13 in 10.0 mi ENE 9.2 mph - N/A   Clear
3:53 AM 45.0 °F 40.1 °F 39.0 °F 80% 30.11 in 10.0 mi ENE 9.2 mph - N/A   Clear
4:53 AM 44.1 °F 40.8 °F 37.9 °F 79% 30.10 in 10.0 mi East 5.8 mph - N/A   Clear
5:53 AM 45.0 °F 41.2 °F 39.0 °F 80% 30.10 in 10.0 mi East 6.9 mph - N/A   Clear
6:53 AM 46.0 °F 41.9 °F 39.0 °F 76% 30.09 in 10.0 mi East 8.1 mph - N/A   Clear
7:53 AM 45.0 °F 41.2 °F 39.0 °F 80% 30.10 in 10.0 mi East 6.9 mph - N/A   Clear
8:53 AM 48.0 °F - 39.9 °F 74% 30.10 in 10.0 mi East 8.1 mph - N/A   Partly Cloudy
9:53 AM 52.0 °F - 42.1 °F 69% 30.09 in 10.0 mi East 11.5 mph - N/A   Clear
10:53 AM 57.9 °F - 44.1 °F 60% 30.09 in 10.0 mi ESE 10.4 mph - N/A   Clear
11:53 AM 61.0 °F - 46.0 °F 58% 30.07 in 10.0 mi SE 8.1 mph - N/A   Overcast
12:13 PM 62.1 °F - 46.0 °F 56% 30.06 in 10.0 mi ESE 11.5 mph - N/A   Overcast
12:37 PM 63.0 °F - 46.0 °F 54% 30.05 in 10.0 mi SE 12.7 mph - N/A   Overcast
12:53 PM 64.0 °F - 46.0 °F 52% 30.05 in 10.0 mi ESE 11.5 mph - N/A   Overcast
1:53 PM 64.0 °F - 46.9 °F 54% 30.02 in 10.0 mi ESE 12.7 mph - N/A   Overcast
2:53 PM 64.9 °F - 48.0 °F 54% 29.99 in 10.0 mi ESE 10.4 mph - N/A   Overcast
3:43 PM 64.9 °F - 51.1 °F 61% 29.98 in 10.0 mi SSE 8.1 mph - N/A   Overcast
3:53 PM 64.9 °F - 51.1 °F 61% 29.98 in 10.0 mi SSE 10.4 mph - N/A   Overcast
4:53 PM 64.9 °F - 51.1 °F 61% 29.96 in 10.0 mi SE 10.4 mph - N/A   Overcast
5:53 PM 64.9 °F - 52.0 °F 63% 29.96 in 10.0 mi SSE 9.2 mph - N/A   Overcast
6:05 PM 64.9 °F - 52.0 °F 63% 29.97 in 10.0 mi SE 6.9 mph - N/A   Overcast
6:53 PM 64.0 °F - 53.1 °F 67% 29.97 in 10.0 mi SSE 8.1 mph - N/A   Overcast
7:53 PM 63.0 °F - 53.1 °F 70% 29.97 in 10.0 mi SE 8.1 mph - N/A   Overcast
8:53 PM 61.0 °F - 52.0 °F 72% 29.97 in 10.0 mi ESE 8.1 mph - N/A   Overcast
9:53 PM 59.0 °F - 54.0 °F 83% 29.96 in 10.0 mi ESE 5.8 mph - 0.02 in   Mostly Cloudy
10:53 PM 60.1 °F - 55.9 °F 86% 29.95 in 10.0 mi ESE 8.1 mph - 0.02 in Rain Light Rain
11:53 PM 60.1 °F - 57.0 °F 90% 29.94 in 8.0 mi ESE 8.1 mph - 0.07 in   Overcast